Thunderstorms From: 25-05-2018 05:05 Until: 26-05-2018 05:00 warning for: Thunderstorms Level: Yellow info button

Although rather usual in this region, locally or potentially dangerous phenomena are expected. (such as local winds, summer thunderstorms, rising streams or high waves) Be aware and pay attention to the latest weather updates, especially if you carry out activities exposed to weather or close to a stream or shoreline. 


Meteo18 Weather Cam more information Meteo18 Weather Cam


warning for Thunderstorms more information blitzortung!


Rain radar more information rain snow radar


Visit our other weather sites:

Template documentation
and downloads

And another site



Weather Underground History page Text

Daily Summary for January 23, 2018 Units:  Metric    English   Both
« Previous Day
Next Day »
Daily Weekly Monthly Yearly Custom
  High: Low: Average:
Temperature: -17.8 °C -14.1 °C -13.2 °C
Dew Point: -17.8 °C -14.6 °C -13.6 °C
Humidity: Humidity % 86 % 94 %
Wind Speed: 0 km/h 0 km/h 11.9 km/h
Wind Gust: 0 km/h - -
Wind:- - SW
Pressure: 0 hPa 34716.7 hPa -
Precipitation: 7.62 mm    
Historical Graphs
 
 
Tabular Data for January 23, 2018
Time Temperature Dew Point Pressure Wind Wind Speed Wind Gust Humidity Rainfall Rate (Hourly)
-17.8 °C -17.8 °C 0 hPa Calm     Humidity % 0 mm
00:04 -13.4 °C -14.1 °C 34726.8 hPa SW 2.3 km/h 7.7 km/h 92 % 0 mm
00:10 -13.4 °C -14.1 °C 34726.8 hPa WSW 2.3 km/h 5.1 km/h 92 % 0 mm
00:16 -13.4 °C -14.1 °C 34726.8 hPa Calm   7.7 km/h 92 % 0 mm
00:22 -13.4 °C -14.1 °C 34726.8 hPa WSW 5.1 km/h 10.3 km/h 92 % 0 mm
00:28 -13.4 °C -14.1 °C 34726.8 hPa WSW 12.7 km/h 15.6 km/h 92 % 0 mm
00:34 -13.4 °C -14.1 °C 34726.8 hPa SW 5.1 km/h 10.3 km/h 92 % 0 mm
00:40 -13.4 °C -14.1 °C 34726.8 hPa WSW 12.7 km/h 15.6 km/h 92 % 0 mm
00:46 -13.4 °C -14.1 °C 34726.8 hPa WSW 5.1 km/h 10.3 km/h 92 % 0 mm
00:52 -13.4 °C -14.1 °C 34716.7 hPa West 12.7 km/h 12.9 km/h 92 % 0 mm
00:58 -13.4 °C -14.1 °C 34716.7 hPa WSW 5.1 km/h 10.3 km/h 92 % 0 mm
01:04 -13.4 °C -14.1 °C 34726.8 hPa WSW 5.1 km/h 7.7 km/h 92 % 0 mm
01:10 -13.4 °C -14.2 °C 34726.8 hPa WSW 7.6 km/h 7.7 km/h 91 % 0 mm
01:16 -13.4 °C -14.2 °C 34726.8 hPa Calm   5.1 km/h 91 % 0 mm
01:22 -13.4 °C -14.2 °C 34726.8 hPa WSW 5.1 km/h 5.1 km/h 91 % 0 mm
01:28 -13.4 °C -14.2 °C 34726.8 hPa West 2.3 km/h 5.1 km/h 91 % 0 mm
01:40 -13.4 °C -14.1 °C 34726.8 hPa West 5.1 km/h 7.7 km/h 92 % 0 mm
01:46 -13.4 °C -14.2 °C 34726.8 hPa West 5.1 km/h 7.7 km/h 91 % 0 mm
01:58 -13.4 °C -14.2 °C 34726.8 hPa WSW 5.1 km/h 7.7 km/h 91 % 0 mm
02:04 -13.4 °C -14.3 °C 34726.8 hPa WSW 5.1 km/h 5.1 km/h 90 % 0 mm
02:10 -13.4 °C -14.2 °C 34726.8 hPa West 5.1 km/h 5.1 km/h 90 % 0 mm
02:16 -13.4 °C -14.3 °C 34726.8 hPa West 2.3 km/h 7.7 km/h 89 % 0 mm
02:22 -13.4 °C -14.3 °C 34726.8 hPa Calm   5.1 km/h 89 % 0 mm
02:28 -13.3 °C -14.4 °C 34726.8 hPa West 5.1 km/h 10.3 km/h 87 % 0 mm
02:34 -13.3 °C -14.5 °C 34726.8 hPa WSW 5.1 km/h 10.3 km/h 86 % 0 mm
02:41 -13.3 °C -14.5 °C 34726.8 hPa WSW 5.1 km/h 7.7 km/h 86 % 0 mm
02:47 -13.3 °C -14.4 °C 34740.4 hPa SW 2.3 km/h 10.3 km/h 87 % 0 mm
02:53 -13.3 °C -14.4 °C 34740.4 hPa SW 5.1 km/h 10.3 km/h 88 % 0 mm
02:59 -13.4 °C -14.4 °C 34740.4 hPa SW 2.3 km/h 7.7 km/h 88 % 0 mm
03:05 -13.4 °C -14.4 °C 34740.4 hPa SW 2.3 km/h 10.3 km/h 88 % 0 mm
03:11 -13.4 °C -14.3 °C 34740.4 hPa SW 5.1 km/h 7.7 km/h 89 % 0 mm
03:17 -13.4 °C -14.3 °C 34740.4 hPa SW 7.6 km/h 12.9 km/h 90 % 0 mm
03:23 -13.5 °C -14.3 °C 34740.4 hPa SSW 7.6 km/h 12.9 km/h 90 % 0 mm
03:29 -13.5 °C -14.3 °C 34740.4 hPa SW 5.1 km/h 10.3 km/h 90 % 0 mm
03:35 -13.5 °C -14.3 °C 34740.4 hPa SSW 2.3 km/h 5.1 km/h 90 % 0 mm
03:47 -13.6 °C -14.4 °C 34740.4 hPa Calm   2.6 km/h 91 % 0 mm
03:53 -13.7 °C -14.3 °C 34740.4 hPa SW 5.1 km/h 10.3 km/h 92 % 0 mm
03:59 -13.7 °C -14.3 °C 34750.5 hPa WSW 10.3 km/h 10.3 km/h 93 % 0 mm
04:05 -13.7 °C -14.3 °C 34750.5 hPa WSW 5.1 km/h 7.7 km/h 92 % 0 mm
04:11 -13.6 °C -14.4 °C 34740.4 hPa West 2.3 km/h 5.1 km/h 91 % 0 mm
04:17 -13.6 °C -14.4 °C 34740.4 hPa West 2.3 km/h 5.1 km/h 91 % 0 mm
04:23 -13.6 °C -14.4 °C 34740.4 hPa Calm   5.1 km/h 91 % 0 mm
04:29 -13.6 °C -14.4 °C 34750.5 hPa WSW 2.3 km/h 5.1 km/h 91 % 0 mm
04:31 -13.6 °C -14.4 °C 34750.5 hPa Calm   5.1 km/h 91 % 0 mm
04:37 -13.7 °C -14.4 °C 34750.5 hPa Calm   2.6 km/h 91 % 0 mm
04:43 -13.7 °C -14.4 °C 34750.5 hPa SSW 2.3 km/h 2.6 km/h 91 % 0 mm
04:49 -13.7 °C -14.4 °C 34750.5 hPa Calm     91 % 0 mm
04:55 -13.8 °C -14.6 °C 34750.5 hPa SSW 2.3 km/h 5.1 km/h 91 % 0 mm
05:01 -13.9 °C -14.6 °C 34750.5 hPa SSW 2.3 km/h 7.7 km/h 92 % 0 mm
05:07 -13.9 °C -14.6 °C 34750.5 hPa WSW 2.3 km/h 7.7 km/h 93 % 0 mm
05:09 -13.9 °C -14.6 °C 34750.5 hPa West 5.1 km/h 5.1 km/h 93 % 0 mm
05:15 -13.9 °C -14.6 °C 34750.5 hPa SW 2.3 km/h 5.1 km/h 93 % 0 mm
05:21 -13.9 °C -14.4 °C 34750.5 hPa SW 7.6 km/h 7.7 km/h 94 % 0 mm
05:27 -13.8 °C -14.3 °C 34750.5 hPa SSW 5.1 km/h 10.3 km/h 94 % 0 mm
05:33 -13.8 °C -14.3 °C 34750.5 hPa WSW 10.3 km/h 12.9 km/h 94 % 0 mm
05:39 -13.8 °C -14.4 °C 34750.5 hPa SW 7.6 km/h 12.9 km/h 93 % 0 mm
05:45 -13.8 °C -14.4 °C 34750.5 hPa SW 7.6 km/h 7.7 km/h 93 % 0 mm
05:57 -13.8 °C -14.3 °C 34750.5 hPa WSW 7.6 km/h 10.3 km/h 94 % 0 mm
06:03 -13.8 °C -14.3 °C 34750.5 hPa SW 7.6 km/h 12.9 km/h 94 % 0 mm
06:09 -13.8 °C -14.2 °C 34750.5 hPa West 5.1 km/h 15.6 km/h 95 % 0 mm
06:15 -13.8 °C -14.2 °C 34750.5 hPa SW 12.7 km/h 15.6 km/h 95 % 0 mm
06:27 -13.7 °C -14.1 °C 34760.7 hPa SW 12.7 km/h 12.9 km/h 95 % 0 mm
06:33 -13.8 °C -14.2 °C 34760.7 hPa WSW 12.7 km/h 12.9 km/h 95 % 0 mm
06:39 -13.8 °C -14.2 °C 34760.7 hPa SSW 10.3 km/h 18.2 km/h 95 % 0 mm
06:45 -13.8 °C -14.1 °C 34760.7 hPa SSW 17.9 km/h 20.8 km/h 96 % 0 mm
06:51 -13.8 °C -14.2 °C 34750.5 hPa SSW 17.9 km/h 25.9 km/h 96 % 0 mm
07:09 -14 °C -14.3 °C 34760.7 hPa WSW 12.7 km/h 15.6 km/h 96 % 0 mm
07:15 -14 °C -14.2 °C 34760.7 hPa SW 5.1 km/h 23.3 km/h 97 % 0 mm
07:21 -14 °C -14.2 °C 34760.7 hPa SW 12.7 km/h 20.8 km/h 97 % 0 mm
07:27 -14.1 °C -14.3 °C 34760.7 hPa SW 10.3 km/h 20.8 km/h 97 % 0 mm
07:33 -14 °C -14.2 °C 34760.7 hPa West 15.6 km/h 31.1 km/h 97 % 0 mm
07:39 -14.1 °C -14.3 °C 34760.7 hPa SW 7.6 km/h 23.3 km/h 97 % 0 mm
07:45 -14 °C -14.2 °C 34760.7 hPa SW 15.6 km/h 18.2 km/h 97 % 0 mm
07:57 -14 °C -14.2 °C 34760.7 hPa WSW 2.3 km/h 12.9 km/h 97 % 0 mm
08:03 -14 °C -14.2 °C 34760.7 hPa SSW 10.3 km/h 20.8 km/h 97 % 0 mm
08:09 -14 °C -14.2 °C 34760.7 hPa SW 15.6 km/h 18.2 km/h 97 % 0 mm
08:15 -13.9 °C -14.2 °C 34760.7 hPa WSW 7.6 km/h 18.2 km/h 97 % 0 mm
08:21 -13.9 °C -14.2 °C 34760.7 hPa WSW 7.6 km/h 15.6 km/h 97 % 0 mm
08:27 -13.9 °C -14.2 °C 34774.2 hPa WSW 5.1 km/h 18.2 km/h 97 % 0 mm
08:33 -13.9 °C -14.2 °C 34774.2 hPa WSW 7.6 km/h 12.9 km/h 97 % 0 mm
08:39 -13.9 °C -14.2 °C 34784.4 hPa SW 15.6 km/h 20.8 km/h 97 % 0 mm
08:45 -13.9 °C -14.1 °C 34784.4 hPa SW 12.7 km/h 23.3 km/h 97 % 0 mm
08:51 -13.9 °C -14.2 °C 34784.4 hPa SW 7.6 km/h 23.3 km/h 97 % 0 mm
08:57 -13.9 °C -14.2 °C 34784.4 hPa West 20.9 km/h 23.3 km/h 97 % 0 mm
09:03 -13.9 °C -14.2 °C 34784.4 hPa WSW 23 km/h 25.9 km/h 97 % 0 mm
09:09 -13.9 °C -14.2 °C 34784.4 hPa SW 12.7 km/h 23.3 km/h 97 % 0 mm
09:15 -13.9 °C -14.2 °C 34784.4 hPa West 17.9 km/h 23.3 km/h 97 % 0 mm
09:21 -13.9 °C -14.2 °C 34784.4 hPa SW 7.6 km/h 10.3 km/h 97 % 0 mm
09:27 -13.9 °C -14.2 °C 34784.4 hPa SW 5.1 km/h 12.9 km/h 97 % 0 mm
09:33 -13.9 °C -14.1 °C 34784.4 hPa WSW 7.6 km/h 20.8 km/h 97 % 0 mm
09:39 -13.9 °C -14.1 °C 34784.4 hPa SW 12.7 km/h 31.1 km/h 97 % 0 mm
09:51 -13.8 °C -14.2 °C 34784.4 hPa WSW 17.9 km/h 23.3 km/h 96 % 0 mm
09:57 -13.8 °C -14.2 °C 34784.4 hPa WSW 12.7 km/h 15.6 km/h 96 % 0 mm
10:03 -13.8 °C -14.2 °C 34784.4 hPa WSW 15.6 km/h 15.6 km/h 96 % 0 mm
10:09 -13.8 °C -14.2 °C 34797.9 hPa SSW 10.3 km/h 18.2 km/h 96 % 0 mm
10:16 -13.8 °C -14.1 °C 34797.9 hPa SW 12.7 km/h 12.9 km/h 96 % 0 mm
10:21 -13.8 °C -14.1 °C 34797.9 hPa SSW 5.1 km/h 12.9 km/h 96 % 0 mm
10:28 -13.7 °C -14.1 °C 34797.9 hPa SSW 5.1 km/h 15.6 km/h 95 % 0 mm
10:34 -13.7 °C -14.1 °C 34797.9 hPa SW 7.6 km/h 18.2 km/h 95 % 0 mm
10:40 -13.7 °C -14.1 °C 34797.9 hPa SSW 12.7 km/h 18.2 km/h 95 % 0 mm
10:46 -13.6 °C -14.1 °C 34797.9 hPa SW 12.7 km/h 23.3 km/h 94 % 0 mm
10:52 -13.6 °C -14.1 °C 34797.9 hPa West 5.1 km/h 15.6 km/h 94 % 0 mm
10:58 -13.5 °C -14 °C 34797.9 hPa SSW 20.9 km/h 20.9 km/h 94 % 0 mm
11:04 -13.4 °C -14 °C 34797.9 hPa SSE 10.3 km/h 18.2 km/h 93 % 0 mm
11:16 -13.3 °C -13.9 °C 34797.9 hPa SSW 10.3 km/h 23.3 km/h 92 % 0 mm
11:22 -13.2 °C -14 °C 34808.1 hPa SSW 12.7 km/h 25.9 km/h 91 % 0 mm
11:28 -13.2 °C -14 °C 34808.1 hPa SW 15.6 km/h 23.3 km/h 91 % 0 mm
11:34 -13.2 °C -14 °C 34808.1 hPa SW 31.4 km/h 36.2 km/h 90 % 0 mm
11:40 -13.1 °C -13.9 °C 34808.1 hPa SW 12.7 km/h 23.3 km/h 90 % 0 mm
11:52 -13.1 °C -13.9 °C 34797.9 hPa SW 15.6 km/h 23.3 km/h 90 % 0 mm
11:58 -13.1 °C -13.9 °C 34797.9 hPa SSW 7.6 km/h 20.8 km/h 90 % 0 mm
12:04 -13.1 °C -13.9 °C 34784.4 hPa SSW 15.6 km/h 23.3 km/h 90 % 0 mm
12:10 -13 °C -13.8 °C 34784.4 hPa SSW 12.7 km/h 25.9 km/h 90 % 0 mm
12:16 -13 °C -13.8 °C 34784.4 hPa SSW 20.9 km/h 25.9 km/h 90 % 0 mm
12:22 -13 °C -13.8 °C 34784.4 hPa South 10.3 km/h 28.5 km/h 90 % 0 mm
12:28 -13 °C -13.8 °C 34784.4 hPa SSW 17.9 km/h 28.5 km/h 90 % 0 mm
12:34 -12.9 °C -13.8 °C 34784.4 hPa SW 17.9 km/h 36.2 km/h 90 % 0 mm
12:40 -12.9 °C -13.8 °C 34784.4 hPa SSW 12.7 km/h 28.5 km/h 90 % 0 mm
12:46 -12.9 °C -13.8 °C 34784.4 hPa SW 23 km/h 25.9 km/h 90 % 0 mm
12:52 -12.9 °C -13.8 °C 34774.2 hPa SSW 12.7 km/h 25.9 km/h 90 % 0 mm
12:58 -12.9 °C -13.8 °C 34774.2 hPa SW 17.9 km/h 25.9 km/h 90 % 0 mm
13:04 -12.8 °C -13.7 °C 34774.2 hPa SSW 26.2 km/h 31.1 km/h 90 % 0 mm
13:10 -12.7 °C -13.6 °C 34774.2 hPa SW 23 km/h 33.6 km/h 90 % 0 mm
13:16 -12.7 °C -13.6 °C 34774.2 hPa SW 28.5 km/h 33.6 km/h 89 % 0 mm
13:28 -12.6 °C -13.5 °C 34774.2 hPa SW 15.6 km/h 31.1 km/h 89 % 0 mm
13:34 -12.6 °C -13.6 °C 34774.2 hPa SSW 20.9 km/h 33.6 km/h 88 % 0 mm
13:52 -12.5 °C -13.4 °C 34760.7 hPa SW 15.6 km/h 31.1 km/h 89 % 0 mm
13:58 -12.4 °C -13.5 °C 34760.7 hPa SW 33.6 km/h 41.4 km/h 88 % 0 mm
14:04 -12.5 °C -13.4 °C 34760.7 hPa SW 23 km/h 28.5 km/h 89 % 0 mm
14:16 -12.7 °C -13.4 °C 34760.7 hPa SW 28.5 km/h 33.6 km/h 91 % 0 mm
14:22 -12.7 °C -13.4 °C 34760.7 hPa SSW 20.9 km/h 31.1 km/h 92 % 0 mm
14:28 -12.7 °C -13.3 °C 34760.7 hPa SSW 23 km/h 31.1 km/h 93 % 0 mm
14:40 -12.8 °C -13.3 °C 34760.7 hPa SW 20.9 km/h 28.5 km/h 94 % 0 mm
14:46 -12.8 °C -13.3 °C 34760.7 hPa SSW 15.6 km/h 25.9 km/h 95 % 0 mm
14:52 -12.9 °C -13.3 °C 34760.7 hPa SSW 12.7 km/h 23.3 km/h 95 % 0 mm
14:58 -12.9 °C -13.3 °C 34760.7 hPa SSW 10.3 km/h 23.3 km/h 95 % 0 mm
15:04 -12.9 °C -13.3 °C 34760.7 hPa SSW 15.6 km/h 25.9 km/h 96 % 0 mm
15:10 -12.9 °C -13.2 °C 34760.7 hPa SW 20.9 km/h 31.1 km/h 96 % 0 mm
15:16 -12.9 °C -13.2 °C 34760.7 hPa South 20.9 km/h 28.5 km/h 96 % 0 mm
15:22 -12.9 °C -13.2 °C 34760.7 hPa SW 26.2 km/h 33.6 km/h 96 % 0 mm
15:28 -12.9 °C -13.2 °C 34760.7 hPa SW 20.9 km/h 25.9 km/h 96 % 0 mm
15:34 -12.8 °C -13.2 °C 34760.7 hPa SW 12.7 km/h 20.8 km/h 96 % 0 mm
15:40 -12.9 °C -13.2 °C 34760.7 hPa SSW 15.6 km/h 28.5 km/h 96 % 0 mm
15:46 -12.9 °C -13.3 °C 34760.7 hPa South 15.6 km/h 20.8 km/h 96 % 0 mm
15:52 -12.9 °C -13.3 °C 34760.7 hPa SSW 23 km/h 28.5 km/h 96 % 0 mm
15:58 -12.9 °C -13.2 °C 34760.7 hPa SSW 15.6 km/h 23.3 km/h 97 % 0 mm
16:04 -12.9 °C -13.2 °C 34760.7 hPa SW 17.9 km/h 23.3 km/h 97 % 0 mm
16:10 -12.9 °C -13.2 °C 34760.7 hPa SSW 15.6 km/h 25.9 km/h 97 % 0 mm
16:16 -12.9 °C -13.2 °C 34760.7 hPa SSW 15.6 km/h 20.8 km/h 97 % 0 mm
16:22 -12.9 °C -13.2 °C 34760.7 hPa South 20.9 km/h 20.9 km/h 97 % 0 mm
16:28 -12.9 °C -13.2 °C 34760.7 hPa SSW 15.6 km/h 28.5 km/h 97 % 0 mm
16:34 -12.9 °C -13.2 °C 34760.7 hPa SW 15.6 km/h 23.3 km/h 97 % 0 mm
16:40 -12.9 °C -13.2 °C 34760.7 hPa SSW 20.9 km/h 23.3 km/h 97 % 0 mm
16:46 -12.9 °C -13.2 °C 34760.7 hPa SSW 12.7 km/h 18.2 km/h 97 % 0 mm
16:52 -12.9 °C -13.2 °C 34760.7 hPa SW 12.7 km/h 15.6 km/h 97 % 0 mm
16:58 -12.8 °C -13.1 °C 34760.7 hPa SSW 12.7 km/h 20.8 km/h 97 % 0 mm
17:04 -12.8 °C -13.1 °C 34760.7 hPa SSW 12.7 km/h 18.2 km/h 97 % 0 mm
17:12 -12.8 °C -13.1 °C 34760.7 hPa SSW 15.6 km/h 15.6 km/h 97 % 0 mm
17:18 -12.8 °C -13.1 °C 34760.7 hPa SSW 10.3 km/h 20.8 km/h 97 % 0 mm
17:24 -12.8 °C -13.1 °C 34760.7 hPa SSW 10.3 km/h 23.3 km/h 97 % 0 mm
17:30 -12.8 °C -13.1 °C 34760.7 hPa SSW 12.7 km/h 18.2 km/h 97 % 0 mm
17:36 -12.8 °C -13.1 °C 34760.7 hPa South 12.7 km/h 18.2 km/h 97 % 0 mm
17:42 -12.8 °C -13.1 °C 34760.7 hPa SW 12.7 km/h 20.8 km/h 97 % 0 mm
17:48 -12.8 °C -13.1 °C 34760.7 hPa SSW 10.3 km/h 15.6 km/h 97 % 0 mm
17:54 -12.8 °C -13.1 °C 34760.7 hPa South 7.6 km/h 15.6 km/h 97 % 0 mm
18:00 -12.8 °C -13.1 °C 34760.7 hPa South 7.6 km/h 15.6 km/h 97 % 0 mm
18:06 -12.8 °C -13.1 °C 34760.7 hPa SSW 12.7 km/h 20.8 km/h 97 % 0 mm
18:12 -12.7 °C -13 °C 34760.7 hPa SSW 10.3 km/h 20.8 km/h 97 % 0 mm
18:18 -12.7 °C -13 °C 34760.7 hPa South 7.6 km/h 15.6 km/h 97 % 0 mm
18:24 -12.7 °C -12.9 °C 34774.2 hPa SSW 12.7 km/h 15.6 km/h 98 % 0 mm
18:30 -12.7 °C -12.9 °C 34774.2 hPa SSW 10.3 km/h 12.9 km/h 98 % 0 mm
18:36 -12.7 °C -12.9 °C 34774.2 hPa SSW 15.6 km/h 15.6 km/h 98 % 0 mm
18:42 -12.7 °C -12.9 °C 34774.2 hPa SSW 7.6 km/h 12.9 km/h 98 % 0 mm
18:48 -12.7 °C -12.8 °C 34774.2 hPa SSW 7.6 km/h 12.9 km/h 98 % 7.62 mm
18:54 -12.7 °C -12.8 °C 34774.2 hPa SSW 7.6 km/h 10.3 km/h 98 % 7.62 mm
19:06 -12.7 °C -12.8 °C 34774.2 hPa SSW 5.1 km/h 7.7 km/h 98 % 7.62 mm
19:13 -12.7 °C -12.8 °C 34774.2 hPa SSW 5.1 km/h 10.3 km/h 98 % 7.62 mm
19:24 -12.6 °C -12.8 °C 34774.2 hPa SSW 10.3 km/h 10.3 km/h 98 % 7.62 mm
19:30 -12.6 °C -12.7 °C 34774.2 hPa SSW 12.7 km/h 12.9 km/h 98 % 7.62 mm
19:37 -12.5 °C -12.7 °C 34784.4 hPa SW 12.7 km/h 12.9 km/h 98 % 7.62 mm
19:42 -12.4 °C -12.6 °C 34774.2 hPa SW 10.3 km/h 20.8 km/h 98 % 7.62 mm
19:49 -12.3 °C -12.5 °C 34774.2 hPa SW 12.7 km/h 20.8 km/h 98 % 0 mm
19:55 -12.3 °C -12.4 °C 34784.4 hPa SSW 10.3 km/h 15.6 km/h 98 % 0 mm
20:01 -12.3 °C -12.4 °C 34784.4 hPa SW 12.7 km/h 18.2 km/h 98 % 0 mm
20:07 -12.3 °C -12.4 °C 34784.4 hPa SW 15.6 km/h 18.2 km/h 98 % 0 mm
20:19 -12.2 °C -12.4 °C 34784.4 hPa SSW 7.6 km/h 20.8 km/h 98 % 0 mm
20:25 -12.2 °C -12.4 °C 34784.4 hPa SW 10.3 km/h 20.8 km/h 98 % 0 mm
20:31 -12.2 °C -12.4 °C 34784.4 hPa SSW 10.3 km/h 15.6 km/h 98 % 0 mm
20:37 -12.3 °C -12.4 °C 34784.4 hPa SW 12.7 km/h 15.6 km/h 98 % 0 mm
20:43 -12.2 °C -12.4 °C 34784.4 hPa SW 12.7 km/h 15.6 km/h 98 % 0 mm
20:49 -12.2 °C -12.4 °C 34784.4 hPa SSW 7.6 km/h 15.6 km/h 98 % 0 mm
20:55 -12.2 °C -12.4 °C 34784.4 hPa SW 10.3 km/h 15.6 km/h 98 % 0 mm
21:01 -12.2 °C -12.4 °C 34784.4 hPa SW 23 km/h 23.3 km/h 98 % 0 mm
21:07 -12.2 °C -12.4 °C 34784.4 hPa SW 17.9 km/h 31.1 km/h 98 % 0 mm
21:13 -12.2 °C -12.4 °C 34784.4 hPa SW 12.7 km/h 20.8 km/h 98 % 0 mm
21:19 -12.3 °C -12.6 °C 34784.4 hPa SW 20.9 km/h 28.5 km/h 97 % 0 mm
21:25 -12.3 °C -12.6 °C 34774.2 hPa SW 15.6 km/h 31.1 km/h 97 % 0 mm
21:31 -12.3 °C -12.6 °C 34774.2 hPa SW 17.9 km/h 23.3 km/h 97 % 0 mm
21:37 -12.3 °C -12.6 °C 34784.4 hPa SW 20.9 km/h 28.5 km/h 97 % 0 mm
21:43 -12.3 °C -12.6 °C 34784.4 hPa SW 12.7 km/h 20.8 km/h 97 % 0 mm
21:55 -12.2 °C -12.5 °C 34784.4 hPa SSW 28.5 km/h 31.1 km/h 97 % 0 mm
22:01 -12.2 °C -12.5 °C 34784.4 hPa SW 15.6 km/h 25.9 km/h 97 % 0 mm
22:07 -12.2 °C -12.5 °C 34784.4 hPa SSW 17.9 km/h 23.3 km/h 97 % 0 mm
22:13 -12.2 °C -12.5 °C 34784.4 hPa SSW 31.4 km/h 33.6 km/h 97 % 0 mm
22:19 -12.2 °C -12.5 °C 34784.4 hPa SW 15.6 km/h 31.1 km/h 96 % 0 mm
22:25 -12.2 °C -12.5 °C 34784.4 hPa SSW 15.6 km/h 23.3 km/h 96 % 0 mm
22:31 -12.2 °C -12.5 °C 34784.4 hPa SW 7.6 km/h 23.3 km/h 96 % 0 mm
22:37 -12.2 °C -12.5 °C 34784.4 hPa SW 26.2 km/h 31.1 km/h 96 % 0 mm
22:43 -12.2 °C -12.5 °C 34784.4 hPa SSW 15.6 km/h 25.9 km/h 96 % 0 mm
22:49 -12.2 °C -12.5 °C 34784.4 hPa SSW 10.3 km/h 23.3 km/h 96 % 0 mm
22:55 -12.2 °C -12.6 °C 34784.4 hPa SW 12.7 km/h 20.8 km/h 96 % 0 mm
23:01 -12.3 °C -12.6 °C 34784.4 hPa SSW 15.6 km/h 20.8 km/h 96 % 0 mm
23:13 -12.3 °C -12.7 °C 34784.4 hPa SW 20.9 km/h 28.5 km/h 96 % 0 mm
23:19 -12.3 °C -12.7 °C 34784.4 hPa SW 26.2 km/h 28.5 km/h 96 % 0 mm
23:31 -12.3 °C -12.8 °C 34784.4 hPa SW 26.2 km/h 31.1 km/h 95 % 0 mm
23:37 -12.3 °C -12.8 °C 34784.4 hPa SSW 23 km/h 31.1 km/h 95 % 0 mm
23:43 -12.3 °C -12.8 °C 34774.2 hPa SW 26.2 km/h 33.6 km/h 95 % 0 mm
23:49 -12.4 °C -12.8 °C 34784.4 hPa SW 26.2 km/h 28.5 km/h 95 % 0 mm
23:55 -12.4 °C -12.8 °C 34774.2 hPa SSW 17.9 km/h 38.8 km/h 95 % 0 mm
Meteo18
Compliments of Weather Underground - 4 mb

Script developed by  Jim McMurry - jmcmurry@mwt.net Adapted for the template by  Wim van der Kuil - Leuven-Template.eu

You find our weather info also at:

European Weather Network

Weather Underground

Equipment we use:

Weather-station
Davis Vue

Weather-program
Meteobridge

Weather-server
Raspberry PI 2 B+

Provider
1 and 1

Davis Vue

Meteobridge

Raspberry PI 2 B+

1 and 1